Weather History for KBTM - January, 2012

Change the Weather History Date:

Wednesday, January 25, 2012

  Actual Average Record
Temperature  
Mean Temperature 35 °F 20 °F  
Max Temperature 42 °F 33 °F 54 °F (2015)
Min Temperature 28 °F 8 °F -38 °F (1949)
Degree Days  
Heating Degree Days 30 45  
Month to date heating degree days 1022 1139  
Since 1 July heating degree days 4747 5103  
Cooling Degree Days 0 0  
Month to date cooling degree days 0 0  
Year to date cooling degree days 0 0  
Moisture  
Dew Point 24 °F    
Average Humidity 67    
Maximum Humidity 89    
Minimum Humidity 44    
Precipitation  
Precipitation T in 0.01 in 0.57 in (1975)
Month to date precipitation 0.09 0.38  
Year to date precipitation 0.09 0.38  
Sea Level Pressure  
Sea Level Pressure 30.04 in    
Wind  
Wind Speed 10 mph (West)    
Max Wind Speed 25 mph    
Max Gust Speed 38 mph    
Visibility 9 miles    
Events Snow    
T = Trace of Precipitation, MM = Missing Value Source: NWS Daily Summary

Daily Weather History Graph

Daily Weather History Graph

Search for Another Location

Airport or City:

Trip Planner

Search our weather history database for the weather conditions in past years. The results will help you decide how hot, cold, wet, or windy it might be!

Date:

Astronomy

Jan. 25, 2012 Rise Set
Actual Time 8:00 AM MST 5:24 PM MST
Civil Twilight 7:27 AM MST 5:57 PM MST
Nautical Twilight 6:51 AM MST 6:33 PM MST
Astronomical Twilight 6:16 AM MST 7:08 PM MST
Moon 8:50 AM MST (1/25) 8:34 PM MST (1/25)
Length of Visible Light 10h 29m
Length of Day
9h 24m
Waxing Crescent, 7% of the Moon is Illuminated
Jan 25
Waxing Crescent
Jan 30
First Quarter
Feb 7
Full
Feb 14
Last Quarter
Feb 21
New

Hourly Weather History & Observations

Time (MST) Temp. Windchill Dew Point Humidity Pressure Visibility Wind Dir Wind Speed Gust Speed Precip Events Conditions
12:39 AM 30.2 °F 26.7 °F 17.6 °F 60% 30.01 in 5.0 mi Variable 3.5 mph - 0.00 in Snow Light Snow
12:53 AM 30.0 °F 24.1 °F 19.0 °F 64% 30.14 in 9.0 mi SSE 5.8 mph - 0.00 in   Overcast
1:53 AM 30.0 °F - 21.0 °F 69% 30.09 in 10.0 mi Calm Calm - N/A   Scattered Clouds
2:53 AM 32.0 °F 25.6 °F 21.9 °F 66% 30.07 in 10.0 mi SSW 6.9 mph - N/A   Clear
3:53 AM 35.1 °F 30.1 °F 23.0 °F 61% 30.03 in 10.0 mi SW 5.8 mph - N/A   Partly Cloudy
4:53 AM 41.0 °F 33.9 °F 24.1 °F 51% 29.98 in 10.0 mi West 12.7 mph 19.6 mph N/A   Overcast
5:53 AM 41.0 °F 33.5 °F 24.1 °F 51% 29.94 in 10.0 mi WSW 13.8 mph 31.1 mph N/A   Mostly Cloudy
6:53 AM 41.0 °F 31.9 °F 23.0 °F 49% 29.94 in 10.0 mi West 19.6 mph 33.4 mph N/A   Overcast
7:53 AM 39.9 °F 32.1 °F 25.0 °F 55% 29.95 in 10.0 mi WSW 13.8 mph 23.0 mph N/A   Overcast
8:53 AM 41.0 °F 33.5 °F 24.1 °F 51% 29.94 in 10.0 mi WSW 13.8 mph 35.7 mph N/A   Overcast
9:53 AM 39.9 °F 32.5 °F 26.1 °F 58% 29.96 in 10.0 mi WSW 12.7 mph 17.3 mph N/A   Overcast
10:53 AM 41.0 °F 33.5 °F 26.1 °F 55% 29.98 in 10.0 mi WSW 13.8 mph 20.7 mph 0.00 in   Overcast
11:48 AM 37.4 °F 28.9 °F 30.2 °F 75% 29.94 in 10.0 mi NW 13.8 mph - 0.00 in   Overcast
11:53 AM 36.0 °F 26.7 °F 30.9 °F 82% 30.01 in 10.0 mi NW 15.0 mph - 0.00 in   Overcast
12:17 PM 33.8 °F 23.9 °F 30.2 °F 87% 29.96 in 1.8 mi NW 15.0 mph 29.9 mph 0.00 in Snow Light Snow
12:29 PM 33.8 °F 25.8 °F 32.0 °F 93% 29.96 in 3.0 mi WNW 10.4 mph - 0.00 in Snow Light Snow
12:46 PM 35.6 °F 28.6 °F 32.0 °F 87% 29.97 in 4.0 mi NW 9.2 mph - 0.00 in Snow Light Snow
12:53 PM 35.1 °F 29.3 °F 32.0 °F 89% 30.04 in 3.0 mi WNW 6.9 mph - 0.00 in Snow Light Snow
1:02 PM 35.6 °F 30.7 °F 32.0 °F 87% 29.97 in 6.0 mi WNW 5.8 mph - 0.00 in Snow Light Snow
1:16 PM 35.6 °F 31.7 °F 30.2 °F 81% 29.97 in 10.0 mi NW 4.6 mph - 0.00 in   Overcast
1:53 PM 36.0 °F 26.3 °F 24.1 °F 62% 30.04 in 10.0 mi NW 16.1 mph 28.8 mph 0.00 in   Overcast
2:53 PM 34.0 °F 26.0 °F 24.1 °F 67% 30.09 in 10.0 mi NW 10.4 mph - N/A   Overcast
3:53 PM 34.0 °F 27.2 °F 21.0 °F 59% 30.09 in 10.0 mi WNW 8.1 mph - N/A   Scattered Clouds
4:53 PM 33.1 °F 26.9 °F 21.0 °F 61% 30.09 in 10.0 mi West 6.9 mph - N/A   Overcast
5:53 PM 33.1 °F 24.4 °F 18.0 °F 54% 30.11 in 10.0 mi West 11.5 mph 17.3 mph N/A   Mostly Cloudy
6:53 PM 35.6 °F 25.5 °F 15.8 °F 44% 30.09 in 10.0 mi West 17.3 mph 28.8 mph N/A   Partly Cloudy
7:53 PM 32.0 °F - 16.0 °F 52% 30.16 in 10.0 mi Calm Calm - N/A   Clear
8:53 PM 33.1 °F 26.9 °F 17.1 °F 52% 30.17 in 10.0 mi WSW 6.9 mph - N/A   Overcast
9:53 PM 33.1 °F 30.0 °F 17.1 °F 52% 30.17 in 10.0 mi West 3.5 mph - N/A   Overcast
10:53 PM 30.9 °F - 19.0 °F 61% 30.19 in 10.0 mi Calm Calm - N/A   Overcast
11:53 PM 34.0 °F 27.2 °F 19.0 °F 54% 30.18 in 10.0 mi SW 8.1 mph - N/A   Overcast